EW7230 Weather Reports


time (UTC)temp
C
wind
direction
speed
KPH
gust
KPH
rain 1hr
cm
rain 24hr
cm
rain mn
cm
humidity
%
barometer
mb
20260503005055 7 275 0.0 0.0 0.00 0.00 0.00 78 1006.2
20260503004557 8 333 0.0 0.0 0.00 0.00 0.00 77 1006.1
20260503004054 8 333 0.0 3.2 0.00 0.00 0.00 76 1006.1
20260503003553 8 242 0.0 4.8 0.00 0.00 0.00 77 1006.1
20260503003055 8 345 0.0 4.8 0.00 0.00 0.00 76 1006.1
20260503002553 8 325 0.0 8.0 0.00 0.00 0.00 77 1006.1
20260503002053 8 355 0.0 8.0 0.00 0.00 0.00 76 1006.1
20260503001552 8 334 0.0 6.4 0.00 0.00 0.00 77 1006.1
20260503001052 8 333 0.0 0.0 0.00 0.00 0.00 77 1006.0
20260503000551 8 348 0.0 0.0 0.00 0.00 0.00 78 1005.9
20260503000050 8 355 0.0 0.0 0.00 0.00 0.00 78 1005.9
20260502235553 8 332 0.0 0.0 0.00 0.00 0.00 79 1006.1
20260502235049 7 342 0.0 0.0 0.00 0.00 0.00 79 1006.2
20260502234554 7 317 0.0 0.0 0.00 0.00 0.00 79 1006.1
20260502234049 7 317 0.0 0.0 0.00 0.00 0.00 79 1006.2
20260502233548 7 317 0.0 0.0 0.00 0.00 0.00 78 1006.2
20260502233048 8 321 0.0 0.0 0.00 0.00 0.00 78 1006.3
20260502232548 8 316 0.0 0.0 0.00 0.00 0.00 78 1006.1
20260502232048 7 340 0.0 0.0 0.00 0.00 0.00 79 1006.2
20260502231644 7 335 0.0 0.0 0.00 0.00 0.00 80 1006.2
20260502231043 7 321 0.0 0.0 0.00 0.00 0.00 80 1006.3
20260502230541 7 342 0.0 0.0 0.00 0.00 0.00 80 1006.3
20260502230042 7 360 0.0 0.0 0.00 0.00 0.00 81 1006.4
20260502225541 7 37 0.0 0.0 0.00 0.00 0.00 81 1006.5
20260502225041 7 39 0.0 0.0 0.00 0.00 0.00 81 1006.5
20260502224545 7 40 0.0 0.0 0.00 0.00 0.00 81 1006.4
20260502224041 7 40 0.0 0.0 0.00 0.00 0.00 82 1006.4
20260502223540 6 40 0.0 0.0 0.00 0.00 0.00 82 1006.4
20260502223043 6 40 0.0 0.0 0.00 0.00 0.00 82 1006.5
20260502222539 6 40 0.0 0.0 0.00 0.00 0.00 82 1006.4
20260502222039 6 40 0.0 0.0 0.00 0.00 0.00 82 1006.4
20260502221538 6 40 0.0 0.0 0.00 0.00 0.00 81 1006.5
20260502221036 6 40 0.0 0.0 0.00 0.00 0.00 80 1006.3
20260502220535 7 40 0.0 0.0 0.00 0.00 0.00 80 1006.3
20260502220035 7 40 0.0 0.0 0.00 0.00 0.00 80 1006.3
20260502215535 7 40 0.0 0.0 0.00 0.00 0.00 80 1006.3
20260502215035 7 40 0.0 0.0 0.00 0.00 0.00 80 1006.3
20260502214544 7 40 0.0 0.0 0.00 0.00 0.00 80 1006.4
20260502214035 7 40 0.0 0.0 0.00 0.00 0.00 79 1006.3
20260502213533 7 40 0.0 0.0 0.00 0.00 0.00 79 1006.3
20260502213032 7 40 0.0 0.0 0.00 0.00 0.00 79 1006.2
20260502212533 7 40 0.0 0.0 0.00 0.00 0.00 79 1006.1
20260502212032 7 40 0.0 0.0 0.00 0.00 0.00 79 1006.2
20260502211534 7 40 0.0 0.0 0.00 0.00 0.00 79 1006.2
20260502211032 7 40 0.0 0.0 0.00 0.00 0.00 78 1006.2
20260502210531 8 40 0.0 0.0 0.00 0.00 0.00 78 1006.1
20260502210036 8 40 0.0 0.0 0.00 0.00 0.00 77 1006.0
20260502205532 8 40 0.0 0.0 0.00 0.00 0.00 77 1005.9
20260502205031 8 40 0.0 0.0 0.00 0.00 0.00 77 1005.9
20260502204530 8 40 0.0 0.0 0.00 0.00 0.00 76 1006.0
20260502204030 8 40 0.0 0.0 0.00 0.00 0.00 76 1006.0
20260502203533 8 40 0.0 0.0 0.00 0.00 0.00 75 1006.0
20260502203029 8 40 0.0 0.0 0.00 0.00 0.00 74 1005.9
20260502202528 8 40 0.0 0.0 0.00 0.00 0.00 74 1005.9
20260502202028 8 40 0.0 0.0 0.00 0.00 0.00 74 1005.9
20260502201528 8 40 0.0 0.0 0.00 0.00 0.00 73 1005.9
20260502201027 9 40 0.0 0.0 0.00 0.00 0.00 73 1005.9
20260502200530 9 40 0.0 0.0 0.00 0.00 0.00 73 1005.9
20260502200027 9 40 0.0 0.0 0.00 0.00 0.00 72 1005.9
20260502195526 9 40 0.0 0.0 0.00 0.00 0.00 73 1005.9
20260502195026 9 40 0.0 0.0 0.00 0.00 0.00 72 1005.9
20260502194531 9 40 0.0 0.0 0.00 0.00 0.00 71 1006.0
20260502194026 10 32 0.0 0.0 0.00 0.00 0.00 71 1006.0
20260502193525 10 21 0.0 0.0 0.00 0.00 0.00 69 1006.0
20260502193025 10 360 0.0 0.0 0.00 0.00 0.00 68 1005.9
20260502192527 10 340 0.0 0.0 0.00 0.00 0.00 67 1005.9
20260502192026 11 340 0.0 0.0 0.00 0.00 0.00 66 1006.1
20260502191529 11 340 0.0 0.0 0.00 0.00 0.00 65 1006.0
20260502191028 11 340 0.0 0.0 0.00 0.00 0.00 64 1006.0
20260502190525 11 340 0.0 0.0 0.00 0.00 0.00 63 1006.0
20260502190030 11 340 0.0 0.0 0.00 0.00 0.00 62 1005.9
20260502185524 12 340 0.0 0.0 0.00 0.00 0.00 62 1005.8
20260502185024 12 340 0.0 0.0 0.00 0.00 0.00 60 1005.7
20260502184524 12 340 0.0 0.0 0.00 0.00 0.00 59 1005.7
20260502184024 12 340 0.0 0.0 0.00 0.00 0.00 58 1005.7
20260502183523 12 340 0.0 0.0 0.00 0.00 0.00 57 1005.6
20260502183023 12 340 0.0 0.0 0.00 0.00 0.00 60 1005.6
20260502182522 12 340 0.0 0.0 0.00 0.00 0.00 59 1005.6
20260502182021 12 340 0.0 0.0 0.00 0.00 0.00 58 1005.7
20260502181529 12 340 0.0 0.0 0.00 0.00 0.00 57 1005.7
20260502181020 12 340 0.0 0.0 0.00 0.00 0.00 56 1005.7
20260502180522 12 340 0.0 0.0 0.00 0.00 0.00 54 1005.8
20260502170517 13 5 0.0 0.0 0.00 0.00 0.00 48 1006.0
20260502164013 13 332 0.0 0.0 0.00 0.00 0.00 47 1006.2
20260502163512 13 350 0.0 0.0 0.00 0.00 0.00 48 1006.3
20260502163019 13 331 0.0 0.0 0.00 0.00 0.00 48 1006.4
20260502162512 13 331 0.0 0.0 0.00 0.00 0.00 50 1006.3
20260502162011 13 331 0.0 0.0 0.00 0.00 0.00 48 1006.4
20260502161510 13 331 0.0 0.0 0.00 0.00 0.00 48 1006.5
20260502161009 13 331 0.0 0.0 0.00 0.00 0.00 47 1006.5
20260502160509 13 326 0.0 0.0 0.00 0.00 0.00 46 1006.5
20260502152005 13 360 0.0 0.0 0.00 0.00 0.00 44 1006.9
20260502151511 13 337 0.0 0.0 0.00 0.00 0.00 41 1007.0
20260502151005 13 333 0.0 1.6 0.00 0.00 0.00 42 1007.1
20260502150505 13 43 0.0 1.6 0.00 0.00 0.00 41 1007.1
20260502130558 16 331 0.0 0.0 0.00 0.00 0.00 35 1007.1
20260502123556 17 265 0.0 0.0 0.00 0.00 0.00 35 1007.3
20260502123102 17 330 0.0 0.0 0.00 0.00 0.00 34 1007.3
20260502122551 17 326 0.0 0.0 0.00 0.00 0.00 36 1007.5
20260502122050 16 309 0.0 0.0 0.00 0.00 0.00 38 1007.5
20260502121550 16 340 0.0 0.0 0.00 0.00 0.00 36 1007.5
20260502121050 16 331 0.0 0.0 0.00 0.00 0.00 36 1007.6
20260502120548 16 335 0.0 8.0 0.00 0.00 0.00 38 1007.6
20260502115547 16 324 0.0 0.0 0.00 0.00 0.00 38 1007.7
20260502115046 16 257 0.0 0.0 0.00 0.00 0.00 36 1007.7
20260502114556 16 328 0.0 0.0 0.00 0.00 0.00 35 1007.7
20260502114050 16 274 0.0 0.0 0.00 0.00 0.00 39 1007.8
20260502113550 16 248 0.0 1.6 0.00 0.00 0.00 39 1007.9
20260502113052 16 320 0.0 1.6 0.00 0.00 0.00 39 1007.9
20260502112547 16 355 0.0 1.6 0.00 0.00 0.00 41 1007.9
20260502112047 16 350 0.0 0.0 0.00 0.00 0.00 40 1007.9
20260502111559 16 338 0.0 0.0 0.00 0.00 0.00 41 1007.9
20260502111052 16 335 0.0 0.0 0.00 0.00 0.00 41 1008.0
20260502110552 16 263 0.0 0.0 0.00 0.00 0.00 42 1008.2
20260502110053 16 15 0.0 0.0 0.00 0.00 0.00 42 1008.1
20260502105550 16 15 0.0 0.0 0.00 0.00 0.00 43 1008.1
20260502105049 16 15 0.0 0.0 0.00 0.00 0.00 42 1008.1
20260502104551 15 15 0.0 0.0 0.00 0.00 0.00 43 1008.2
20260502104050 15 142 0.0 0.0 0.00 0.00 0.00 46 1008.1
20260502103549 15 142 0.0 0.0 0.00 0.00 0.00 48 1008.2
20260502103102 15 142 0.0 0.0 0.00 0.00 0.00 49 1008.1
20260502102550 15 142 0.0 0.0 0.00 0.00 0.00 53 1008.3
20260502102050 14 142 0.0 0.0 0.00 0.00 0.00 53 1008.3
20260502101600 14 142 0.0 0.0 0.00 0.00 0.00 55 1008.3
20260502101050 15 142 0.0 0.0 0.00 0.00 0.00 50 1008.4
20260502100549 15 142 0.0 0.0 0.00 0.00 0.00 49 1008.5
20260502100135 15 142 0.0 0.0 0.00 0.00 0.00 45 1008.5
20260502091055 15 142 0.0 0.0 0.00 0.00 0.00 47 1008.8
20260502090557 15 142 0.0 0.0 0.00 0.00 0.00 46 1008.7
20260502090119 15 141 0.0 0.0 0.00 0.00 0.00 46 1008.6
20260502071041 10 115 0.0 0.0 0.00 0.00 0.00 63 1010.1
20260502070540 10 115 0.0 0.0 0.00 0.00 0.00 64 1010.1
20260502070048 9 71 0.0 0.0 0.00 0.00 0.00 68 1010.3
20260502065539 8 71 0.0 0.0 0.00 0.00 0.00 69 1010.3
20260502065038 8 71 0.0 0.0 0.00 0.00 0.00 70 1010.4
20260502064543 8 71 0.0 0.0 0.00 0.00 0.00 70 1010.4
20260502064042 7 71 0.0 0.0 0.00 0.00 0.00 69 1010.5
20260502063543 7 71 0.0 0.0 0.00 0.00 0.00 72 1010.6
20260502063044 7 69 0.0 0.0 0.00 0.00 0.00 75 1010.6
20260502062542 6 69 0.0 0.0 0.00 0.00 0.00 78 1010.7
20260502062042 6 69 0.0 0.0 0.00 0.00 0.00 78 1010.8
20260502061546 5 69 0.0 0.0 0.00 0.00 0.00 81 1010.9
20260502061041 4 69 0.0 0.0 0.00 0.00 0.00 82 1010.9
20260502060540 3 69 0.0 0.0 0.00 0.00 0.00 81 1010.9
20260502060044 3 69 0.0 0.0 0.00 0.00 0.00 81 1011.0
20260502055544 3 69 0.0 0.0 0.00 0.00 0.00 82 1011.0
20260502055043 3 69 0.0 0.0 0.00 0.00 0.00 82 1011.0
20260502054545 3 69 0.0 0.0 0.00 0.00 0.00 81 1011.0
20260502054044 3 69 0.0 0.0 0.00 0.00 0.00 81 1011.0
20260502053543 3 69 0.0 0.0 0.00 0.00 0.00 81 1011.0
20260502053043 2 69 0.0 0.0 0.00 0.00 0.00 82 1011.1
20260502052543 2 69 0.0 0.0 0.00 0.00 0.00 82 1011.1
20260502052042 2 69 0.0 0.0 0.00 0.00 0.00 82 1011.1
20260502051547 2 69 0.0 0.0 0.00 0.00 0.00 82 1011.1
20260502051047 2 69 0.0 0.0 0.00 0.00 0.00 82 1011.1
20260502050545 2 69 0.0 0.0 0.00 0.00 0.00 82 1011.2
20260502050043 2 69 0.0 0.0 0.00 0.00 0.00 81 1011.1
20260502045546 2 69 0.0 0.0 0.00 0.00 0.00 82 1011.2
20260502045043 2 69 0.0 0.0 0.00 0.00 0.00 81 1011.2
20260502044548 2 69 0.0 0.0 0.00 0.00 0.00 81 1011.2
20260502044047 2 69 0.0 0.0 0.00 0.00 0.00 81 1011.2
20260502043547 2 69 0.0 0.0 0.00 0.00 0.00 80 1011.3
20260502043104 3 69 0.0 0.0 0.00 0.00 0.00 80 1011.2
20260502042700 3 69 0.0 0.0 0.00 0.00 0.00 80 1011.3
20260502042044 3 69 0.0 0.0 0.00 0.00 0.00 80 1011.4
20260502041550 3 69 0.0 0.0 0.00 0.00 0.00 81 1011.4
20260502041042 2 69 0.0 0.0 0.00 0.00 0.00 81 1011.4
20260502040544 2 69 0.0 0.0 0.00 0.00 0.00 81 1011.4
20260502040142 2 69 0.0 0.0 0.00 0.00 0.00 81 1011.4
20260502035552 3 69 0.0 0.0 0.00 0.00 0.00 80 1011.4
20260502035052 3 69 0.0 0.0 0.00 0.00 0.00 80 1011.6
20260502034551 3 69 0.0 0.0 0.00 0.00 0.00 79 1011.6
20260502034050 3 69 0.0 0.0 0.00 0.00 0.00 79 1011.5
20260502033549 3 69 0.0 0.0 0.00 0.00 0.00 78 1011.6
20260502033052 3 69 0.0 0.0 0.00 0.00 0.00 78 1011.8
20260502032551 3 69 0.0 0.0 0.00 0.00 0.00 77 1011.8
20260502032051 3 69 0.0 0.0 0.00 0.00 0.00 77 1011.8
20260502031555 3 69 0.0 0.0 0.00 0.00 0.00 77 1011.9
20260502031054 3 69 0.0 0.0 0.00 0.00 0.00 76 1011.9
20260502030553 4 69 0.0 0.0 0.00 0.00 0.00 75 1012.0
20260502030057 4 69 0.0 0.0 0.00 0.00 0.00 74 1012.0
20260502025551 4 69 0.0 0.0 0.00 0.00 0.00 75 1012.0
20260502025050 4 69 0.0 0.0 0.00 0.00 0.00 73 1012.1
20260502024526 5 69 0.0 0.0 0.00 0.00 0.00 73 1012.0
20260502024029 5 69 0.0 0.0 0.00 0.00 0.00 71 1012.1
20260502023525 5 69 0.0 0.0 0.00 0.00 0.00 72 1012.1
20260502023057 5 69 0.0 0.0 0.00 0.00 0.00 73 1012.2
20260502022552 5 69 0.0 0.0 0.00 0.00 0.00 73 1012.1
20260502022051 5 69 0.0 0.0 0.00 0.00 0.00 71 1012.1
20260502021551 5 69 0.0 0.0 0.00 0.00 0.00 72 1012.2
20260502021048 5 69 0.0 0.0 0.00 0.00 0.00 71 1012.2
20260502020548 5 69 0.0 0.0 0.00 0.00 0.00 72 1012.3
20260502020053 5 69 0.0 0.0 0.00 0.00 0.00 72 1012.2
20260502015552 5 69 0.0 0.0 0.00 0.00 0.00 73 1012.3
20260502015051 5 69 0.0 0.0 0.00 0.00 0.00 73 1012.4
20260502014551 5 69 0.0 0.0 0.00 0.00 0.00 72 1012.4
20260502014050 5 69 0.0 0.0 0.00 0.00 0.00 73 1012.5
20260502013549 5 69 0.0 0.0 0.00 0.00 0.00 72 1012.5
20260502013052 6 69 0.0 0.0 0.00 0.00 0.00 71 1012.5
20260502012554 6 69 0.0 0.0 0.00 0.00 0.00 69 1012.5
20260502012052 6 148 0.0 0.0 0.00 0.00 0.00 68 1012.6
20260502011553 6 103 0.0 0.0 0.00 0.00 0.00 70 1012.6
20260502011052 6 103 0.0 0.0 0.00 0.00 0.00 71 1012.7
20260502010550 6 103 0.0 0.0 0.00 0.00 0.00 70 1012.7
20260502010106 6 220 0.0 0.0 0.00 0.00 0.00 70 1012.8
20260502005550 6 355 0.0 0.0 0.00 0.00 0.00 68 1012.8